Regional Weather Roundup
Issued by NWS

Home | Current Version | Previous Version | Graphics & Text | Print | Product List | Glossary On
Versions: 1 2 3 4 5 6 7 8 9 10 11 12 13 14 15 16 17 18 19 20 21 22 23 24 25 26 27 28 29
000
ASUS45 KCYS 181710
RWRWY

WYOMING REGIONAL WEATHER ROUNDUP
NATIONAL WEATHER SERVICE CHEYENNE WY
1100 AM MDT WED APR 18 2018

NOTE:  "FAIR" INDICATES FEW OR NO CLOUDS BELOW 12,000 FEET
WITH NO SIGNIFICANT WEATHER AND/OR OBSTRUCTIONS TO VISIBILITY.

WYZ001-181800-
YELLOWSTONE NATIONAL PARK

CITY           SKY/WX    TMP DP  RH WIND       PRES   REMARKS
LK YELLOWSTONE   N/A     25  16  68 E5        30.25S WCI  19
W YELLOWSTONE  NOT AVBL

$$
WYZ002>013-054>058-071-098>099-181800-
NORTHERN WYOMING

CITY           SKY/WX    TMP DP  RH WIND       PRES   REMARKS
JACKSON        FAIR      35  21  56 S5        30.26F WCI  31
CODY           FAIR      44  14  29 W9        30.23F
GREYBULL       FAIR      44  30  57 SE6       30.25F
WORLAND        FAIR      44  24  45 CALM      30.25F
SHERIDAN       FAIR      48  25  40 N14       30.25R
BUFFALO        FAIR      45  19  35 N21       30.24R
GILLETTE       FAIR      46  27  47 NW17      30.22R
HULETT         FAIR      45  28  53 NW10G21   30.21S
NEWCASTLE      FAIR      45  23  42 NW22G28   30.21R

$$
WYZ014>020-022>026-101>103-181800-
CENTRAL WYOMING

CITY           SKY/WX    TMP DP  RH WIND       PRES   REMARKS
BIG PINEY      FAIR      33  13  43 VRB3      30.26F
PINEDALE       FAIR      34  12  40 NE5       30.27S WCI  30
DUBOIS         FAIR      36   9  32 N10G18    30.19F WCI  28
LANDER         FAIR      43  21  41 SE13      30.22F
RIVERTON       FAIR      40   3  21 CALM      30.24S
CASPER         FAIR      35  25  66 SW10      30.26S WCI  27
DOUGLAS        CLOUDY    41  27  57 W15G24    30.26R

$$
WYZ021-027>030-104>119-181800-
SOUTHERN WYOMING

CITY           SKY/WX    TMP DP  RH WIND       PRES   REMARKS
EVANSTON       FAIR      36  14  40 E3        30.24S
KEMMERER       FAIR      36  10  35 S3        30.25S
FORT BRIDGER   FAIR      38  11  32 SE5       30.28F WCI  34
ROCK SPRINGS   FAIR      36   9  32 S5        30.27F WCI  32
DIXON          FAIR      34  16  46 CALM      30.33F
RAWLINS        FAIR      36  15  42 W9        30.27S WCI  29
SARATOGA       FAIR      36  12  38 W9        30.29R WCI  29
LARAMIE        FAIR      36  15  42 NW16G28   30.23S WCI  26
CHEYENNE       FAIR      40  13  33 N18G33    30.24R WCI  31
TORRINGTON     FAIR      47  25  42 NW20G33   30.22R
PINE BLUFFS    FAIR      45  18  33 N21G31    30.24R

$$




USA.gov is the U.S. government's official web portal to all federal, state and local government web resources and services.